Regional Weather Roundup
Issued by NWS

Home | Current Version | Previous Version | Text Only | Print | Product List | Glossary On
Versions: 1 2 3 4 5 6 7 8 9 10 11 12 13 14 15 16 17 18 19 20 21 22 23 24 25 26 27 28 29 30 31 32 33 34 35 36 37 38 39 40 41 42 43 44 45 46 47 48 49 50
000
ASUS44 KOUN 250710
RWROK

WEATHER ROUNDUP FOR OKLAHOMA
NATIONAL WEATHER SERVICE NORMAN OK
100 AM CST SAT FEB 25 2017

NOTE: "FAIR" INDICATES FEW OR NO CLOUDS BELOW 12,000 FEET WITH NO
      SIGNIFICANT WEATHER AND/OR OBSTRUCTIONS TO VISIBILITY.

OKZ001>007-009>012-014-015-017-250800-
NORTHWEST OKLAHOMA AND THE PANHANDLE

CITY           SKY/WX    TMP DP  RH WIND       PRES   REMARKS
GAGE           CLEAR     24  15  68 NE10      30.18R WCI  14
GUYMON         CLEAR     20  13  74 N6        30.16R WCI  12
ENID/WOODRING  CLEAR     28  21  74 N10       30.21R WCI  19
$$

OKZ016-021>023-033>039-044-045-250800-
SOUTHWEST OKLAHOMA

CITY           SKY/WX    TMP DP  RH WIND       PRES   REMARKS
LAWTON/FT SILL CLEAR     32  24  72 N8        30.15R WCI  25
FREDERICK      CLEAR     33  25  72 NE7       30.14R WCI  27
CLINTON        CLEAR     28  19  69 N8        30.17R WCI  20
HOBART         CLEAR     30  24  78 NE13      30.16F WCI  20
ALTUS AFB      CLEAR     31  22  69 NE3       30.17R
$$

OKZ018>020-024>031-250800-
CENTRAL OKLAHOMA

CITY           SKY/WX    TMP DP  RH WIND       PRES   REMARKS
OKLAHOMA CITY  PTCLDY    31  22  69 N16G23    30.17R WCI  20
OKC/WILEY POST CLEAR     30  22  72 N20       30.18R WCI  17
OKC/TINKER AFB CLEAR     30  21  67 N18       30.16R WCI  18
STILLWATER     CLEAR     27  19  72 N9        30.20R WCI  18
GUTHRIE        CLEAR     29  20  69 N9        30.20R WCI  20
$$

OKZ008-013-054>072-250800-
NORTHEAST OKLAHOMA

CITY           SKY/WX    TMP DP  RH WIND       PRES   REMARKS
TULSA          PTCLDY    31  21  66 N17G25    30.18R WCI  19
TULSA/JONES    CLEAR     32  21  64 N8G16     30.18R WCI  25
PONCA CITY     CLEAR     25  17  72 N8        30.21R WCI  16
BARTLESVILLE   MOCLDY    30  18  60 N13G20    30.21R WCI  20
MUSKOGEE       PTCLDY    30  23  75 NW8       30.17R WCI  22
$$

OKZ032-040>043-046>053-073>077-250800-
SOUTH CENTRAL/SOUTHEAST OKLAHOMA

CITY           SKY/WX    TMP DP  RH WIND       PRES   REMARKS
ARDMORE/DWNTWN CLEAR     36  23  60 N5        30.16R WCI  32
MCALESTER      PTCLDY    35  21  56 N12       30.16R WCI  27
$$





USA.gov is the U.S. government's official web portal to all federal, state and local government web resources and services.